Find Khors No. 4

NORAD ID: 61754 Int'l Des: 2024-199 Owner: BAUM Country: RU operational
LEOCIRCULARRETROGRADESSO

現在のビュー

3D地球を読み込み中...

Khors No. 4について

説明を読み込み中...

次回通過

Passes for default location (London). Set your location on the main map for personalized predictions.

高度履歴

Loading altitude history...

軌道要素

1 61754U 24199V 26150.14032360 .00067219 00000-0 89645-3 0 9991
2 61754 97.2955 26.7287 0004714 6.1608 353.9705 15.57879830134835
Epoch: May 30, 2026 • Age: 8 hours

現在のステータス

高度 404.1 km
速度 7.68 km/s
衛星直下点 68.11°N, 49.95°W
打ち上げ日 Nov 4, 2024
運用期間 1.5 years
タイプ other

技術仕様

分類 Payload
質量 10.00 kg
乾燥質量 10.00 kg
総質量 10.00 kg
長さ 0.30 m
直径 0.20 m
スパン 0.30 m
形状 Box
製造者 BAUM
バスタイプ Cubesat 6U
フェーズステータス In Orbit
所有者/国 BAUM/RU

Most Searched